Time,TemperatureF,DewpointF,PressureIn,WindDirection,WindDirectionDegrees,WindSpeedMPH,WindSpeedGustMPH,Humidity,HourlyPrecipIn,Conditions,Clouds,dailyrainin,SoftwareType,DateUTC
2013-06-20 00:00:00,61.7,55.8,29.94,ENE,68,0.0,0.0,81,0.00,,SKC,0.00,VWS V14.01,2013-06-20 05:00:00,
2013-06-20 00:20:00,61.3,55.8,29.94,East,90,0.0,0.0,82,0.00,,SKC,0.00,VWS V14.01,2013-06-20 05:20:00,
2013-06-20 00:40:00,61.3,55.8,29.94,ESE,112,0.0,0.0,82,0.00,,SKC,0.00,VWS V14.01,2013-06-20 05:40:00,
2013-06-20 01:00:00,61.0,56.5,29.97,East,90,0.0,0.0,85,0.00,,SKC,0.00,VWS V14.01,2013-06-20 06:00:00,
2013-06-20 01:20:00,60.8,55.9,29.94,East,90,0.0,0.0,84,0.00,,SKC,0.00,VWS V14.01,2013-06-20 06:20:00,
2013-06-20 01:40:00,60.1,55.9,29.94,East,90,0.0,0.0,86,0.00,,SKC,0.00,VWS V14.01,2013-06-20 06:40:00,
2013-06-20 02:00:00,60.1,56.2,29.91,East,90,0.0,0.0,87,0.00,,SKC,0.00,VWS V14.01,2013-06-20 07:00:00,
2013-06-20 02:20:00,59.7,55.8,29.94,ENE,68,0.0,0.0,87,0.00,,SKC,0.00,VWS V14.01,2013-06-20 07:20:00,
2013-06-20 02:40:00,59.4,56.1,29.94,East,90,0.0,0.0,89,0.00,,SKC,0.00,VWS V14.01,2013-06-20 07:40:00,
2013-06-20 03:00:00,59.4,56.1,29.94,East,90,0.0,0.0,89,0.00,,SKC,0.00,VWS V14.01,2013-06-20 08:00:00,
2013-06-20 03:20:00,59.5,56.6,29.91,East,90,0.0,0.0,90,0.00,,SKC,0.00,VWS V14.01,2013-06-20 08:20:00,
2013-06-20 03:40:00,59.4,56.4,29.94,ENE,68,0.0,0.0,90,0.00,,SKC,0.00,VWS V14.01,2013-06-20 08:40:00,
2013-06-20 04:00:00,59.0,56.4,29.94,ENE,68,0.0,0.0,91,0.00,,SKC,0.00,VWS V14.01,2013-06-20 09:00:00,
2013-06-20 04:20:00,59.2,56.9,29.94,ENE,68,0.0,0.0,92,0.00,,SKC,0.00,VWS V14.01,2013-06-20 09:20:00,
2013-06-20 04:40:00,59.4,57.6,29.91,ENE,68,0.0,0.0,94,0.00,,SKC,0.00,VWS V14.01,2013-06-20 09:40:00,
2013-06-20 05:00:00,59.5,58.1,29.91,ENE,68,0.0,2.3,95,0.00,,SKC,0.00,VWS V14.01,2013-06-20 10:00:00,
2013-06-20 05:20:00,59.2,57.8,29.91,ENE,68,0.0,0.0,95,0.00,,SKC,0.00,VWS V14.01,2013-06-20 10:20:00,
2013-06-20 05:40:00,59.2,57.8,29.91,ENE,68,0.0,0.0,95,0.00,,SKC,0.00,VWS V14.01,2013-06-20 10:40:00,
2013-06-20 06:00:00,59.4,58.2,29.91,ENE,68,0.0,0.0,96,0.00,,SKC,0.00,VWS V14.01,2013-06-20 11:00:00,
2013-06-20 06:20:00,59.7,58.9,29.91,ENE,68,0.0,2.7,97,0.00,,SKC,0.00,VWS V14.01,2013-06-20 11:20:00,
2013-06-20 06:40:00,61.0,60.1,29.94,ENE,68,0.0,5.5,97,0.00,,SKC,0.00,VWS V14.01,2013-06-20 11:40:00,
2013-06-20 07:00:00,61.9,61.0,29.94,ENE,68,0.0,6.7,97,0.00,,SKC,0.00,VWS V14.01,2013-06-20 12:00:00,
2013-06-20 07:20:00,63.7,62.5,29.94,East,90,0.0,7.4,96,0.00,,SKC,0.00,VWS V14.01,2013-06-20 12:20:00,
2013-06-20 07:40:00,65.1,63.0,29.94,ENE,68,1.0,7.4,93,0.00,,SKC,0.00,VWS V14.01,2013-06-20 12:40:00,
2013-06-20 08:00:00,66.0,62.7,29.94,NE,45,2.3,8.6,89,0.00,,SKC,0.00,VWS V14.01,2013-06-20 13:00:00,
2013-06-20 08:20:00,67.3,63.0,29.94,SSW,202,1.5,6.7,86,0.00,,SKC,0.00,VWS V14.01,2013-06-20 13:20:00,
2013-06-20 08:40:00,68.4,62.7,29.97,SSE,158,1.0,8.2,82,0.00,,SKC,0.00,VWS V14.01,2013-06-20 13:40:00,
2013-06-20 09:00:00,69.1,62.7,29.97,SSW,202,3.3,11.4,80,0.00,,SKC,0.00,VWS V14.01,2013-06-20 14:00:00,
2013-06-20 09:20:00,69.4,62.7,29.97,South,180,0.0,6.7,79,0.00,,SKC,0.00,VWS V14.01,2013-06-20 14:20:00,
2013-06-20 09:40:00,70.5,63.0,29.97,SE,135,1.3,7.0,77,0.00,,SKC,0.00,VWS V14.01,2013-06-20 14:40:00,
2013-06-20 10:00:00,71.2,64.0,29.97,East,90,1.3,5.9,78,0.00,,SKC,0.00,VWS V14.01,2013-06-20 15:00:00,
2013-06-20 10:20:00,71.2,62.9,29.97,East,90,1.0,7.4,75,0.00,,SKC,0.00,VWS V14.01,2013-06-20 15:20:00,
2013-06-20 10:40:00,72.7,64.7,29.97,ENE,68,2.8,7.4,76,0.00,,SKC,0.00,VWS V14.01,2013-06-20 15:40:00,
2013-06-20 11:00:00,74.3,65.1,29.97,SE,135,2.3,10.6,73,0.00,,SKC,0.00,VWS V14.01,2013-06-20 16:00:00,
2013-06-20 11:20:00,75.4,64.9,29.97,South,180,1.8,10.2,70,0.00,,SKC,0.00,VWS V14.01,2013-06-20 16:20:00,
2013-06-20 11:40:00,76.6,65.3,29.97,NW,315,2.8,8.6,68,0.00,,SKC,0.00,VWS V14.01,2013-06-20 16:40:00,
2013-06-20 12:00:00,76.6,65.3,29.97,ESE,112,0.0,8.6,68,0.00,,SKC,0.00,VWS V14.01,2013-06-20 17:00:00,
2013-06-20 12:20:00,76.8,65.5,29.97,SSW,202,6.7,10.2,68,0.00,,SKC,0.00,VWS V14.01,2013-06-20 17:20:00,
2013-06-20 12:40:00,77.2,64.9,30.00,SSE,158,4.6,10.6,66,0.00,,SKC,0.00,VWS V14.01,2013-06-20 17:40:00,
2013-06-20 13:00:00,79.0,64.9,29.97,NNE,22,2.8,12.1,62,0.00,,SKC,0.00,VWS V14.01,2013-06-20 18:00:00,
2013-06-20 13:20:00,76.8,63.7,29.97,West,270,1.0,11.0,64,0.00,,SKC,0.00,VWS V14.01,2013-06-20 18:20:00,
2013-06-20 13:40:00,75.2,63.5,29.97,ENE,68,1.8,10.2,67,0.00,,SKC,0.00,VWS V14.01,2013-06-20 18:40:00,
2013-06-20 14:00:00,74.5,63.7,29.97,ENE,68,0.0,4.7,69,0.04,,SKC,0.04,VWS V14.01,2013-06-20 19:00:00,
2013-06-20 14:20:00,69.8,65.1,29.97,SSE,158,1.5,5.9,85,0.04,,SKC,0.04,VWS V14.01,2013-06-20 19:20:00,
2013-06-20 14:40:00,67.6,64.0,29.97,NNW,338,4.4,9.4,88,0.04,,SKC,0.04,VWS V14.01,2013-06-20 19:40:00,
2013-06-20 15:00:00,66.9,64.5,30.00,NNE,22,2.8,6.7,92,0.09,,SKC,0.09,VWS V14.01,2013-06-20 20:00:00,
2013-06-20 15:20:00,66.7,65.0,29.97,NE,45,0.0,5.9,94,0.05,,SKC,0.09,VWS V14.01,2013-06-20 20:20:00,
2013-06-20 15:40:00,67.1,65.6,29.94,NNE,22,0.0,4.7,95,0.05,,SKC,0.09,VWS V14.01,2013-06-20 20:40:00,
2013-06-20 16:00:00,66.7,65.3,29.97,ENE,68,1.5,4.3,95,0.08,,SKC,0.12,VWS V14.01,2013-06-20 21:00:00,
2013-06-20 16:20:00,66.7,65.6,29.97,ENE,68,2.3,4.3,96,0.12,,SKC,0.21,VWS V14.01,2013-06-20 21:20:00,
2013-06-20 16:40:00,66.7,65.9,29.97,NNW,338,2.8,4.3,97,0.20,,SKC,0.29,VWS V14.01,2013-06-20 21:40:00,
2013-06-20 17:00:00,66.6,65.7,29.97,NNE,22,0.0,4.7,97,0.20,,SKC,0.29,VWS V14.01,2013-06-20 22:00:00,
2013-06-20 17:20:00,66.6,65.7,29.94,NNE,22,0.0,0.0,97,0.17,,SKC,0.29,VWS V14.01,2013-06-20 22:20:00,
2013-06-20 17:40:00,66.0,65.4,29.91,North,0,3.1,6.3,98,0.08,,SKC,0.29,VWS V14.01,2013-06-20 22:40:00,
2013-06-20 21:40:00,64.2,63.7,29.94,East,90,0.0,5.1,98,1.12,,SKC,1.41,VWS V14.01,2013-06-21 02:40:00,
2013-06-20 22:00:00,64.4,63.8,29.94,East,90,1.8,11.0,98,0.00,,SKC,1.53,VWS V14.01,2013-06-21 03:00:00,
2013-06-20 22:20:00,64.4,63.8,29.94,ENE,68,2.3,11.4,98,0.00,,SKC,1.53,VWS V14.01,2013-06-21 03:20:00,
2013-06-20 22:40:00,64.4,63.8,29.94,ENE,68,0.0,7.0,98,0.00,,SKC,1.53,VWS V14.01,2013-06-21 03:40:00,
2013-06-20 23:00:00,64.2,63.7,29.97,ENE,68,0.0,6.7,98,0.00,,SKC,1.53,VWS V14.01,2013-06-21 04:00:00,
2013-06-20 23:20:00,64.6,64.0,29.94,ENE,68,4.6,14.9,98,0.00,,SKC,1.53,VWS V14.01,2013-06-21 04:20:00,
2013-06-20 23:40:00,65.1,64.5,29.94,East,90,3.9,9.8,98,0.00,,SKC,1.53,VWS V14.01,2013-06-21 04:40:00,